Volver al catálogo

BREEZE-M DEB

TANK

ActivoHEO
NORAD 39174·DEBRIS·🇷🇺 Russia

Lanzado Jun 3, 2013 desde Baikonur Cosmodrome

Loading…

Próximos Pases (próximas 24 horas)

TLE

ActualizadoSource: Space-Track

Época: Sep 14, 2026, 12:43 UTC

1 39174U 13026C   26257.53020939  .00001950  00000-0  61763-3 0  9990
2 39174  50.7611 311.4687 5136966 211.5479 103.6081  5.34684524255687

Sigue BREEZE-M DEB en tiempo real con AllMySat

Download on the App Store